This is the latest recevied weather packets stored in our database for station/object N3TJJ-11. If no packets are shown the sender has not sent any weather packets the latest 10 day(s).
| Time | Temp. | Humidity | Pressure | Rain* | Wind** | Luminosity | Snow |
|---|---|---|---|---|---|---|---|
| 1777159444 | 6.11° C | 92% | 1011.8 hPa | 0 mm | - | - | - |
| 1777158846 | 6.11° C | 92% | 1011.8 hPa | 0.25 mm | - | - | - |
| 1777158725 | 6.11° C | 92% | 1011.7 hPa | 0.25 mm | - | - | - |
| 1777158252 | 6.11° C | 92% | 1011.7 hPa | 0.25 mm | - | - | - |
| 1777158004 | 6.11° C | 92% | 1011.8 hPa | 0.25 mm | - | - | - |
| 1777157646 | 6.11° C | 92% | 1011.8 hPa | 0.25 mm | - | - | - |
| 1777157285 | 6.11° C | 92% | 1011.7 hPa | 0.25 mm | - | - | - |
| 1777157047 | 6.11° C | 92% | 1011.7 hPa | 0.25 mm | - | - | - |
| 1777156565 | 6.11° C | 92% | 1011.6 hPa | 0.25 mm | - | - | - |
| 1777156450 | 6.11° C | 92% | 1011.6 hPa | 0.25 mm | - | - | - |
| 1777155845 | 6.11° C | 92% | 1011.1 hPa | 0.51 mm | - | - | - |
| 1777155252 | 6.11° C | 92% | 1010.8 hPa | 0.51 mm | - | - | - |
| 1777155125 | 6.11° C | 92% | 1010.9 hPa | 0.76 mm | - | - | - |
| 1777154646 | 6.11° C | 91% | 1010.7 hPa | 1.02 mm | - | - | - |
| 1777154405 | 6.11° C | 91% | 1010.7 hPa | 1.27 mm | - | - | - |
| 1777154046 | 6.11° C | 91% | 1010.6 hPa | 1.52 mm | - | - | - |
| 1777153685 | 6.67° C | 91% | 1010.7 hPa | 1.52 mm | - | - | - |
| 1777153446 | 6.67° C | 91% | 1010.8 hPa | 1.52 mm | - | - | - |
| 1777152965 | 6.67° C | 91% | 1010.6 hPa | 2.03 mm | - | - | - |
| 1777152853 | 6.67° C | 91% | 1010.5 hPa | 2.03 mm | - | - | - |
| 1777152245 | 6.67° C | 91% | 1010.7 hPa | 2.29 mm | - | - | - |
| 1777151646 | 6.67° C | 91% | 1010.3 hPa | 2.03 mm | - | - | - |
| 1777151525 | 6.67° C | 91% | 1010.3 hPa | 2.03 mm | - | - | - |
| 1777151046 | 6.67° C | 91% | 1011.3 hPa | 1.78 mm | - | - | - |
| 1777150805 | 6.67° C | 91% | 1011.2 hPa | 2.29 mm | - | - | - |
* Rain latest hour (hover to see other rain measurements)
** Current wind speed in m/s (hover to see current wind gust speed)